Location: Boss Branch
(32.3799°N, 97.2508°W)
Time: 09:45:16
(UTC+00:00)

ARIANE 6 FM1 Upper Stage - Visible Passes

Search period start: 21 January 2026 00:00
Search period end: 31 January 2026 00:00
Orbit: 522 x 610 km, 62.0° (Epoch: 20 January)

Date Brightness Start Highest point End Pass type
(mag) Time Alt. Az. Time Alt. Az. Time Alt. Az.
21 Jan 3.2 01:31:50 10° SW 01:35:52 53° WNW 01:37:06 37° N visible
22 Jan 4.1 01:32:20 10° WSW 01:36:04 33° NW 01:38:02 21° N visible
23 Jan 4.8 01:33:04 10° WSW 01:36:19 22° NW 01:38:53 13° N visible
24 Jan 5.2 01:34:10 10° W 01:36:35 15° NW 01:38:59 10° NNW visible
25 Jan 5.6 01:36:26 10° NW 01:36:55 10° NW 01:37:25 10° NW visible
